Lindsay, TX

8:35 PM CST on February 11, 2016 (GMT -0600)
Gainesville Municipal

Weather History for KGLE - May, 2013

Change the Weather History Date:

Friday, May 3, 2013

  Actual Average (KDTO) Record (KDTO)
Temperature  
Mean Temperature 49 °F -  
Max Temperature 65 °F 79 °F 91 °F (2012)
Min Temperature 33 °F 56 °F 33 °F (2013)
Degree Days  
Heating Degree Days 16    
Moisture  
Dew Point 29 °F    
Average Humidity 55    
Maximum Humidity 90    
Minimum Humidity 21    
Precipitation  
Precipitation 0.00 in - - ()
Sea Level Pressure  
Sea Level Pressure 30.21 in    
Wind  
Wind Speed 12 mph (NW)    
Max Wind Speed 23 mph    
Max Gust Speed 30 mph    
Visibility 10 miles    
Events      
Averages and records for this station are not official NWS values.
T = Trace of Precipitation, MM = Missing Value Source: NWS Daily Summary

Daily Weather History Graph

Daily Weather History Graph

Search for Another Location

Airport or City:

Trip Planner

Search our weather history database for the weather conditions in past years. The results will help you decide how hot, cold, wet, or windy it might be!

Date:

Astronomy

May. 03, 2013 Rise Set
Actual Time 6:37 AM CDT 8:13 PM CDT
Civil Twilight 6:11 AM CDT 8:40 PM CDT
Nautical Twilight 5:39 AM CDT 9:12 PM CDT
Astronomical Twilight 5:05 AM CDT 9:46 PM CDT
Moon 2:44 AM CDT (5/3) 2:26 PM CDT (5/3)
Length of Visible Light 14h 29m
Length of Day
13h 35m
Last Quarter, 37% of the Moon is Illuminated
May 3
Last Quarter
May 9
New
May 17
First Quarter
May 24
Full
May 31
Last Quarter

Hourly Weather History & Observations

Time (CDT) Temp. Windchill Dew Point Humidity Pressure Visibility Wind Dir Wind Speed Gust Speed Precip Events Conditions
12:15 AM 37.4 °F 30.3 °F 32.4 °F 82% 30.37 in 10.0 mi NW 10.4 mph - N/A   Clear
12:35 AM 37.0 °F 29.3 °F 32.2 °F 83% 30.37 in 10.0 mi NW 11.5 mph - N/A   Clear
12:55 AM 37.0 °F 28.9 °F 32.4 °F 83% 30.36 in 10.0 mi NW 12.7 mph - N/A   Clear
1:15 AM 37.0 °F 28.9 °F 32.2 °F 83% 30.35 in 10.0 mi NW 12.7 mph - N/A   Clear
1:35 AM 37.0 °F 28.1 °F 32.0 °F 82% 30.35 in 10.0 mi NW 15.0 mph - N/A   Clear
1:55 AM 36.1 °F 27.3 °F 32.0 °F 85% 30.34 in 10.0 mi NW 13.8 mph - N/A   Clear
2:15 AM 35.8 °F 26.9 °F 31.6 °F 85% 30.34 in 10.0 mi NW 13.8 mph - N/A   Clear
2:35 AM 35.8 °F 27.8 °F 31.8 °F 86% 30.34 in 10.0 mi NW 11.5 mph - N/A   Clear
2:55 AM 35.8 °F 27.8 °F 31.8 °F 86% 30.33 in 10.0 mi NW 11.5 mph - N/A   Clear
3:15 AM 35.8 °F 28.8 °F 32.0 °F 86% 30.33 in 10.0 mi NW 9.2 mph - N/A   Clear
3:35 AM 35.8 °F 27.3 °F 32.2 °F 87% 30.32 in 10.0 mi NW 12.7 mph - N/A   Clear
3:55 AM 34.7 °F 25.9 °F 31.8 °F 89% 30.32 in 10.0 mi NW 12.7 mph - N/A   Clear
4:15 AM 33.8 °F 25.3 °F 31.1 °F 90% 30.32 in 10.0 mi NW 11.5 mph - N/A   Clear
4:35 AM 33.3 °F 25.1 °F 30.6 °F 90% 30.33 in 10.0 mi NW 10.4 mph - N/A   Clear
4:55 AM 33.3 °F 25.1 °F 30.6 °F 90% 30.33 in 10.0 mi WNW 10.4 mph - N/A   Clear
5:15 AM 33.3 °F 25.7 °F 30.7 °F 90% 30.32 in 10.0 mi NW 9.2 mph - N/A   Clear
5:35 AM 33.3 °F 25.7 °F 30.6 °F 90% 30.32 in 10.0 mi NW 9.2 mph - N/A   Clear
5:55 AM 33.3 °F 25.7 °F 30.2 °F 89% 30.31 in 10.0 mi NW 9.2 mph - N/A   Clear
6:15 AM 33.3 °F 26.4 °F 29.7 °F 87% 30.31 in 10.0 mi NW 8.1 mph - N/A   Clear
6:35 AM 33.3 °F 26.4 °F 30.2 °F 89% 30.31 in 10.0 mi NW 8.1 mph - N/A   Clear
6:55 AM 33.3 °F 25.7 °F 29.3 °F 85% 30.31 in 10.0 mi WNW 9.2 mph - N/A   Clear
7:15 AM 35.8 °F 28.3 °F 31.1 °F 83% 30.31 in 10.0 mi WNW 10.4 mph - N/A   Clear
7:35 AM 35.8 °F 27.8 °F 30.2 °F 80% 30.32 in 10.0 mi WNW 11.5 mph 16.1 mph N/A   Clear
7:55 AM 37.9 °F 30.9 °F 31.5 °F 77% 30.32 in 10.0 mi WNW 10.4 mph 17.3 mph N/A   Clear
8:15 AM 39.6 °F 31.7 °F 31.5 °F 73% 30.32 in 10.0 mi WNW 13.8 mph - N/A   Clear
8:35 AM 43.3 °F 36.5 °F 33.6 °F 69% 30.32 in 10.0 mi WNW 13.8 mph - N/A   Clear
8:55 AM 45.7 °F 39.1 °F 33.4 °F 62% 30.31 in 10.0 mi WNW 15.0 mph 19.6 mph N/A   Clear
9:15 AM 45.7 °F 38.6 °F 32.2 °F 59% 30.30 in 10.0 mi NW 17.3 mph 21.9 mph N/A   Clear
9:35 AM 48.2 °F - 32.0 °F 54% 30.30 in 10.0 mi NW 18.4 mph 24.2 mph N/A   Clear
9:55 AM 50.7 °F - 33.8 °F 52% 30.30 in 10.0 mi NW 18.4 mph 24.2 mph N/A   Clear
10:15 AM 50.9 °F - 32.5 °F 49% 30.30 in 10.0 mi WNW 16.1 mph 21.9 mph N/A   Clear
10:35 AM 51.6 °F - 31.8 °F 47% 30.29 in 10.0 mi NW 15.0 mph 23.0 mph N/A   Clear
10:55 AM 53.2 °F - 30.2 °F 41% 30.28 in 10.0 mi NW 19.6 mph 25.3 mph N/A   Clear
11:15 AM 55.6 °F - 31.5 °F 40% 30.27 in 10.0 mi NNW 18.4 mph 24.2 mph N/A   Clear
11:35 AM 55.8 °F - 29.5 °F 37% 30.27 in 10.0 mi NNW 17.3 mph 24.2 mph N/A   Clear
11:55 AM 57.2 °F - 24.6 °F 29% 30.26 in 10.0 mi NNW 19.6 mph 28.8 mph N/A   Clear
12:15 PM 57.2 °F - 23.2 °F 27% 30.25 in 10.0 mi NNW 23.0 mph 26.5 mph N/A   Clear
12:35 PM 58.3 °F - 24.6 °F 27% 30.24 in 10.0 mi NNW 21.9 mph 28.8 mph N/A   Clear
12:55 PM 58.6 °F - 23.4 °F 26% 30.23 in 10.0 mi NNW 23.0 mph 29.9 mph N/A   Clear
1:15 PM 59.4 °F - 24.6 °F 26% 30.21 in 10.0 mi NW 20.7 mph 26.5 mph N/A   Scattered Clouds
1:35 PM 59.2 °F - 25.5 °F 28% 30.20 in 10.0 mi NW 13.8 mph 21.9 mph N/A   Scattered Clouds
1:55 PM 58.5 °F - 23.5 °F 26% 30.20 in 10.0 mi NW 15.0 mph 24.2 mph N/A   Scattered Clouds
2:15 PM 60.8 °F - 23.7 °F 24% 30.18 in 10.0 mi NW 19.6 mph 27.6 mph N/A   Scattered Clouds
2:35 PM 60.8 °F - 22.8 °F 23% 30.17 in 10.0 mi NNW 21.9 mph 28.8 mph N/A   Scattered Clouds
2:55 PM 60.3 °F - 23.5 °F 24% 30.17 in 10.0 mi NNW 20.7 mph 28.8 mph N/A   Scattered Clouds
3:15 PM 63.9 °F - 25.7 °F 24% 30.15 in 10.0 mi NW 20.7 mph 24.2 mph N/A   Scattered Clouds
3:35 PM 63.3 °F - 25.7 °F 24% 30.14 in 10.0 mi WNW 20.7 mph 26.5 mph N/A   Scattered Clouds
3:55 PM 61.2 °F - 24.4 °F 25% 30.12 in 10.0 mi NNW 16.1 mph 23.0 mph N/A   Scattered Clouds
4:15 PM 60.3 °F - 22.6 °F 24% 30.12 in 10.0 mi WNW 18.4 mph 24.2 mph N/A   Scattered Clouds
4:35 PM 63.1 °F - 25.0 °F 23% 30.11 in 10.0 mi WNW 17.3 mph 26.5 mph N/A   Scattered Clouds
4:55 PM 63.1 °F - 24.3 °F 23% 30.10 in 10.0 mi NW 20.7 mph 26.5 mph N/A   Scattered Clouds
5:15 PM 63.5 °F - 23.2 °F 21% 30.10 in 10.0 mi WNW 20.7 mph 25.3 mph N/A   Scattered Clouds
5:35 PM 65.1 °F - 27.0 °F 24% 30.09 in 10.0 mi NW 12.7 mph 19.6 mph N/A   Scattered Clouds
5:55 PM 63.5 °F - 25.7 °F 24% 30.08 in 10.0 mi NW 11.5 mph 21.9 mph N/A   Clear
6:15 PM 63.5 °F - 25.3 °F 23% 30.07 in 10.0 mi NW 15.0 mph - N/A   Clear
6:35 PM 61.3 °F - 25.3 °F 25% 30.07 in 10.0 mi WNW 10.4 mph - N/A   Clear
6:55 PM 60.8 °F - 24.8 °F 25% 30.07 in 10.0 mi NW 11.5 mph - N/A   Clear
7:15 PM 59.0 °F - 25.3 °F 28% 30.06 in 10.0 mi NNW 9.2 mph - N/A   Clear
7:35 PM 57.7 °F - 28.2 °F 32% 30.06 in 10.0 mi NNW 5.8 mph - N/A   Clear
7:55 PM 55.8 °F - 29.7 °F 37% 30.06 in 10.0 mi North 4.6 mph - N/A   Clear
8:15 PM 54.9 °F - 30.0 °F 39% 30.06 in 10.0 mi North 3.5 mph - N/A   Clear
8:35 PM 53.2 °F - 28.6 °F 39% 30.06 in 10.0 mi Calm Calm - N/A   Clear
8:55 PM 51.6 °F - 30.6 °F 45% 30.06 in 10.0 mi Calm Calm - N/A   Clear
9:15 PM 50.9 °F - 30.0 °F 45% 30.06 in 10.0 mi Calm Calm - N/A   Clear
9:35 PM 50.9 °F - 33.6 °F 52% 30.06 in 10.0 mi Calm Calm - N/A   Clear
9:55 PM 47.5 °F - 34.2 °F 60% 30.07 in 10.0 mi Calm Calm - N/A   Clear
10:15 PM 45.7 °F - 33.4 °F 62% 30.07 in 10.0 mi Calm Calm - N/A   Clear
10:35 PM 45.7 °F - 34.0 °F 64% 30.07 in 10.0 mi Calm Calm - N/A   Clear
10:55 PM 45.7 °F - 32.0 °F 59% 30.07 in 10.0 mi Calm Calm - N/A   Clear
11:15 PM 45.7 °F - 36.1 °F 69% 30.06 in 10.0 mi Calm Calm - N/A   Clear
11:35 PM 41.4 °F 39.4 °F 34.0 °F 75% 30.06 in 10.0 mi West 3.5 mph - N/A   Clear
11:55 PM 42.1 °F - 33.3 °F 71% 30.06 in 10.0 mi Calm Calm - N/A   Clear